Regional Weather Roundup
Issued by NWS

Home | Current Version | Previous Version | Text Only | Print | Product List | Glossary On
Versions: 1 2 3 4 5 6 7 8 9 10 11 12 13 14 15 16 17 18 19 20 21 22 23 24 25 26 27 28 29 30 31 32 33 34 35 36 37 38 39 40 41 42 43 44 45 46 47 48 49 50
953
ASUS45 KREV 240410
RWRNV
NEVADA REGIONAL WEATHER ROUNDUP
NATIONAL WEATHER SERVICE RENO NV
800 PM PST MON JAN 23 2017

NOTE: "FAIR" INDICATES FEW OR NO CLOUDS BELOW 12,000 FEET WITH NO
SIGNIFICANT WEATHER AND/OR OBSTRUCTIONS TO VISIBILITY.

NVZ001-003-004-240500-
WESTERN NEVADA

CITY           SKY/WX    TMP DP  RH WIND       PRES   REMARKS
RENO           PTCLDY    26  21  81 CALM      29.76R
CARSON CITY    FAIR      23  18  80 CALM      29.77R
MINDEN         FAIR      14  10  85 E12       29.77R
PYRAMID LAKE     N/A     36 N/A N/A W2          N/A
FALLON         MOCLDY    30  25  81 CALM      29.76R
LOVELOCK       PTCLDY    27  25  92 S3        29.76R
HAWTHORNE        N/A    N/A N/A N/A CALM      29.77
$$

NVZ002-CAZ072-073-240500-
NORTHERN AND CENTRAL SIERRA

CITY           SKY/WX    TMP DP  RH WIND       PRES   REMARKS
S. LAKE TAHOE  MOCLDY    18  14  84 SW3       29.73R
TRUCKEE        CLOUDY    14  14 100 SE3       29.75R FOG
SQUAW VLY 8000   N/A     16  16 100 SW7         N/A
SUSANVILLE     PTCLDY   N/A N/A N/A W5        29.77R
MAMMOTH LAKES  FAIR      11   7  87 CALM      29.70S
BRIDGEPORT       N/A      9   2  73 W5        29.68S
$$

NVZ030-031-036-240500-
NORTHERN NEVADA

CITY           SKY/WX    TMP DP  RH WIND       PRES   REMARKS
ELKO           MOCLDY    24  18  77 S5        29.69S
WINNEMUCCA     PTCLDY    19  17  92 CALM      29.75R
WENDOVER       MOCLDY    28  19  69 NW9       29.63S
$$

NVZ035-037-240500-
CENTRAL NEVADA

CITY           SKY/WX    TMP DP  RH WIND       PRES   REMARKS
ELY            MOCLDY     1  -4  79 S3        29.66R
EUREKA           N/A      5   0  79 S9        29.68S
$$

NVZ013-014-240500-
SOUTH CENTRAL NEVADA

CITY           SKY/WX    TMP DP  RH WIND       PRES   REMARKS
TONOPAH        MOCLDY    25  17  72 NW9       29.70R
$$

NVZ017-020-022-240500-
SOUTHERN NEVADA

CITY           SKY/WX    TMP DP  RH WIND       PRES   REMARKS
LAS VEGAS      CLOUDY    46  31  55 N13       29.70R
N. LAS VEGAS   CLOUDY    43  33  68 NW15      29.70R
NELLIS AFB     CLOUDY    46  33  62 W22       29.69R
HENDERSON      MOCLDY    42  33  70 SW9       29.72R
MERCURY        LGT SNOW  33  32  96 NE9       29.73R FOG
$$




USA.gov is the U.S. government's official web portal to all federal, state and local government web resources and services.